POPACS 2

Last updated on Mon Sep 21 2026 00:03:44 GMT+0000 (Coordinated Universal Time)

1 39269U 13055E 26263.62991153 .00013828 00000+0 22942-3 0 9991 2 39269 80.9915 34.6842 0405175 246.6344 109.1772 14.94021814677451
UTC large
Height (km)
Speed (km/s)
/
Latitude / Longitude
Inclination (degrees)
Orbital Period (minutes)
Azimuth
Elevation
Range (km)
Doppler Factor

Next 0 passes for location: London (51.5072 / 0.1276)

No passes found over London.
POPACS 2